Location: Unspecified
(43.4354°N, 0.0000°E)
Time: 09:26:16
(UTC+00:00)

A-11 Canister half - Pass Details

Date: 28 June 2019
Orbit: 1514 x 1685 km, 47.2° (Epoch: 17 July)

Event Time Altitude Azimuth Distance (km) Brightness Sun altitude
Rises 15:24:38 0° 295° (WNW) 4,822 12.2 44.2°
Reaches altitude 10° 15:27:54 10° 290° (WNW) 3,810 11.9 43.6°
Maximum altitude 15:36:58 48° 221° (SW) 1,949 10.8 42.0°
Drops below altitude 10° 15:45:44 10° 150° (SSE) 3,686 10.9 40.4°
Sets 15:48:51 0° 145° (SE) 4,655 11.3 39.9°
